Meteo Giornale » Osservazioni meteo Francia » Parigi-Orly

ore: 15:00 - Osservazioni Meteo Parigi-Orly
Lat. 48° 44' N Lon. 2° 24' E Alt. 89 metri s.l.m.

molto_nuvoloso Europe/Paris

16 °C

Molto Nuvoloso

Temp. 24 Ore

6 °C

18 °C

Ovest/Sud-Ovest

18.5 Km/h

Dew point 9 °C

Umidità 63 %

Visibilità  10 Km

Il sole sorge alle ore 07:33

Il sole tramonta alle ore 20:17

Data e Ora Cielo e Fenomeni T °C DP °C Um. % Pres. hPa Vis. km Vento km/h
Oggi h: 15:00 molto_nuvoloso Molto Nuvoloso 16 9 63 1024 10 O/SO 18.5
Oggi h: 14:30 molto_nuvoloso Molto Nuvoloso 16 9 63 1024 10 O/SO 22.2
Oggi h: 14:00 molto_nuvoloso Molto Nuvoloso 17 8 55 1024 10 SO 14.8
Oggi h: 13:30 molto_nuvoloso Molto Nuvoloso 17 9 59 1024 10 SO 11.1
Oggi h: 13:00 sereno Sereno 15 8 62 1024 10 SO 13
Oggi h: 12:30 sereno Sereno 15 8 62 1024 10 SO 13
Oggi h: 12:00 molto_nuvoloso Molto Nuvoloso 14 7 62 1024 10 SO 14.8
Oggi h: 11:30 molto_nuvoloso Molto Nuvoloso 13 7 66 1023 10 O/SO 13
Oggi h: 11:00 sereno Sereno 14 6 58 1023 10 O/SO 11.1
Oggi h: 10:30 sereno Sereno 14 6 58 1023 10 O/SO 11.1
Oggi h: 10:00 sereno Sereno 12 7 71 1023 10 O/SO 16.7
Oggi h: 09:30 sereno Sereno 11 6 71 1022 10 N 5.5
Oggi h: 09:00 sereno Sereno 10 5 71 1022 10 S/SO 7.4
Oggi h: 08:30 sereno Sereno 8 5 81 1022 10 N 3.7
Oggi h: 08:00 sereno Sereno 7 5 87 1021 10 S/SO 9.3
Oggi h: 07:30 sereno Sereno 7 4 81 1021 10 N 3.7
Oggi h: 07:00 sereno Sereno 7 4 81 1021 10 N 5.5
Oggi h: 06:30 sereno Sereno 7 5 87 1021 10 N 0
Oggi h: 06:00 sereno Sereno 6 5 93 1020 10 N 5.5
Oggi h: 05:30 sereno Sereno 7 5 87 1020 10 N 3.7
Oggi h: 05:00 sereno Sereno 7 5 87 1020 10 N 0
Oggi h: 04:30 sereno Sereno 7 4 81 1020 10 N 1.8
Oggi h: 04:00 sereno Sereno 8 5 81 1020 10 N 1.8
Oggi h: 03:30 sereno Sereno 7 4 81 1020 10 N 3.7
Oggi h: 03:00 sereno Sereno 7 5 87 1020 10 N 0
Oggi h: 02:30 sereno Sereno 7 4 81 1020 10 N 0
Oggi h: 02:00 sereno Sereno 8 4 75 1020 10 N 0
Oggi h: 01:30 sereno Sereno 9 5 75 1020 10 N 3.7
Oggi h: 01:00 sereno Sereno 9 5 75 1020 10 N 0
Oggi h: 00:30 sereno Sereno 9 4 70 1020 10 N 0
Oggi h: 00:00 sereno Sereno 12 5 62 1019 10 N 3.7
Ieri h: 23:30 sereno Sereno 13 5 58 1020 10 N 1.8
Ieri h: 23:00 sereno Sereno 13 5 58 1019 10 N 0
Ieri h: 22:30 sereno Sereno 13 5 58 1019 10 E 9.3
Ieri h: 22:00 sereno Sereno 13 5 58 1019 10 N 3.7
Ieri h: 21:30 sereno Sereno 13 5 58 1019 10 N 3.7
Ieri h: 21:00 sereno Sereno 14 5 54 1019 10 N 5.5
Ieri h: 20:30 sereno Sereno 15 5 51 1019 10 E 7.4
Ieri h: 20:00 sereno Sereno 16 5 47 1018 10 E 9.3
Ieri h: 19:30 sereno Sereno 17 5 45 1018 10 E 11.1
Ieri h: 19:00 sereno Sereno 18 5 42 1018 10 E/SE 11.1
Ieri h: 18:30 sereno Sereno 18 5 42 1018 10 SE 9.3
Ieri h: 18:00 sereno Sereno 18 5 42 1018 10 E/SE 14.8
Ieri h: 17:30 sereno Sereno 18 5 42 1018 10 SE 16.7
Ieri h: 17:00 sereno Sereno 18 4 39 1018 10 E/SE 20.3
Ieri h: 16:30 sereno Sereno 18 4 39 1018 10 E 20.3
Ieri h: 16:00 sereno Sereno 18 4 39 1018 10 E 20.3